Date,TemperatureHighF,TemperatureAvgF,TemperatureLowF,DewpointHighF,DewpointAvgF,DewpointLowF,HumidityHigh,HumidityAvg,HumidityLow,PressureMaxIn,PressureMinIn,WindSpeedMaxMPH,WindSpeedAvgMPH,GustSpeedMaxMPH,PrecipitationSumIn
2013-4-1,42.9,32.4,23.5,29.4,19.4,13.6,87,62,38,30.04,30.04,13,4,13,0.02
2013-4-2,53.1,35.6,22.1,33.5,21.4,14.6,75,56,38,30.04,30.04,4,0,4,0.00
2013-4-3,59.3,43.8,36.8,29.9,24.4,15.4,54,43,32,30.04,30.04,6,0,6,0.00
2013-4-4,71.0,42.9,27.4,41.8,28.4,15.6,80,58,34,30.04,30.04,10,1,10,0.00
2013-4-5,75.7,50.2,34.5,42.8,31.5,22.9,62,52,28,30.04,30.04,13,2,13,0.00
2013-4-6,73.5,59.6,50.9,46.1,40.6,34.1,72,51,34,30.04,30.04,29,3,29,0.00
2013-4-7,84.5,60.1,43.8,49.2,41.4,35.4,85,54,26,30.04,30.04,11,1,18,0.25
2013-4-8,73.4,55.0,46.5,61.6,50.9,43.8,92,87,65,30.04,30.04,43,1,43,0.00
2013-4-9,61.8,45.6,33.4,59.7,43.8,31.6,94,90,48,30.04,30.04,20,6,20,0.35
2013-4-10,35.6,32.4,27.7,33.8,30.5,25.9,94,93,90,30.04,30.04,15,3,15,0.28
2013-4-11,37.1,30.9,23.4,32.1,27.3,21.1,92,87,78,30.04,30.04,7,0,7,0.00
2013-4-12,50.4,36.5,25.7,33.5,28.0,20.7,84,72,51,30.04,30.04,8,2,8,0.00
2013-4-13,60.2,48.7,38.6,42.0,35.4,28.3,79,59,51,30.04,30.04,6,4,6,0.00
2013-4-14,63.6,53.6,42.8,49.7,39.9,28.9,84,62,39,30.04,30.04,17,2,17,0.02
2013-4-15,49.3,39.9,29.0,29.4,25.5,17.3,69,57,45,30.04,30.04,8,1,8,0.00
2013-4-16,51.9,41.4,33.8,33.3,28.6,19.5,76,62,43,30.04,30.04,19,4,19,0.00
2013-4-17,45.3,39.6,33.8,39.4,34.5,29.2,93,83,62,30.04,30.04,16,3,16,0.61
2013-4-18,35.9,31.2,25.3,33.6,28.6,22.5,92,90,89,30.04,30.04,59,5,59,0.26
2013-4-26,74.4,62.2,47.1,52.3,47.1,42.7,85,60,39,30.04,30.04,11,2,11,0.00
2013-4-27,76.8,55.9,43.3,55.0,46.5,39.9,90,73,45,30.04,30.04,14,1,14,0.00
2013-4-28,85.2,64.0,47.3,54.6,49.7,44.0,92,64,33,30.04,30.04,21,3,21,0.00
2013-4-29,91.5,69.6,54.8,58.9,52.1,45.0,81,57,28,30.04,30.04,32,3,32,0.00
2013-4-30,73.2,67.2,62.2,57.4,50.2,44.1,61,55,45,30.04,30.04,15,5,18,0.00